Flag for Canada Weather past 2 weeks in Cambridge, Ontario, Canada

Now
64 °F

Passing clouds.


Feels Like: 64 °F
Forecast: 54 / 79 °F
Wind: 12 mph from Southwest

Location: Waterloo Well

Current Time: May 27, 2015 at 11:12:06 PM

Latest Report: May 27, 2015 at 10:00 PM


Visibility: 9 mi

Pressure: 29.98 "Hg

Humidity: 88%

Dew point: 61 °F

Location of CambridgeLocation

Historic Weather in Cambridge — Graph

°F

Cambridge temperature yesterday

Maximum temperature yesterday: 82 °F (at 3:00 PM)
Minimum temperature yesterday: 64 °F (at 6:00 AM)
Average temperature yesterday: 74 °F

Past Weeks' High & Low Weather Summary

 TemperatureHumidityPressure
High84 °F (May 18, 3:00 PM)94% (May 16, 1:00 AM)30.50 "Hg (May 16, 1:00 AM)
Low27 °F (May 23, 6:00 AM)20% (May 23, 3:00 PM)29.87 "Hg (May 21, 4:59 PM)
Average59 °F61%30.11 "Hg
* Reported May 12 10:00 PM — May 27 10:00 PM, Cambridge, Weather by CustomWeather, © 2015

Note: Actual official high and low records may vary slightly from our data, if they occured in-between our weather recording intervals... More about our weather records

Advertising

Cambridge weather history for previous 24 hours

 ConditionsComfort  
Time TempWeatherWind HumidityBarometerVisibility
10:00 PM
Wed, May 27
64 °FPassing clouds.12 mph88%29.98 "Hg9 mi
9:00 PM66 °FPartly sunny.8 mph83%29.97 "Hg9 mi
8:00 PM66 °FSunny.13 mph83%29.96 "Hg9 mi
7:00 PM68 °FSunny.17 mph73%29.96 "Hg9 mi
6:00 PM70 °FSunny.21 mph69%29.97 "Hg9 mi
5:00 PM73 °FLight rain. Partly sunny.21 mph69%29.95 "Hg9 mi
4:00 PM77 °FBroken clouds.25 mph54%29.93 "Hg9 mi
3:00 PM81 °FBroken clouds.23 mph48%29.93 "Hg9 mi
2:00 PM79 °FScattered clouds.22 mph51%29.96 "Hg9 mi
1:00 PM77 °FPartly sunny.21 mph57%29.97 "Hg9 mi
12:00 PM79 °FScattered clouds.23 mph54%29.96 "Hg9 mi
11:00 AM77 °FPassing clouds.17 mph61%29.96 "Hg9 mi
10:00 AM73 °FPassing clouds.13 mph69%29.97 "Hg9 mi
9:47 AM72 °FScattered clouds.15 mph73%29.98 "Hg9 mi
9:00 AM72 °FBroken clouds.16 mph73%29.98 "Hg9 mi
8:00 AM70 °FPassing clouds.16 mph78%29.97 "Hg9 mi
7:45 AM68 °FScattered clouds.15 mph83%29.96 "Hg9 mi
7:00 AM66 °FMostly cloudy.14 mph88%29.95 "Hg7 mi
6:00 AM66 °FLight rain. Mostly cloudy.10 mph88%29.93 "Hg9 mi
5:48 AM66 °FLight rain. Overcast.12 mph88%29.93 "Hg9 mi
5:00 AM66 °FLight rain. Overcast.12 mph88%29.93 "Hg9 mi
4:00 AM68 °FPassing clouds.14 mph83%29.92 "Hg9 mi
3:48 AM68 °FPassing clouds.13 mph83%29.92 "Hg9 mi
3:00 AM66 °FPassing clouds.12 mph88%29.90 "Hg9 mi
2:00 AM66 °FPartly cloudy.12 mph88%29.92 "Hg9 mi
1:00 AM68 °FPartly cloudy.9 mph88%29.94 "Hg9 mi
12:03 AM68 °FLight rain. Mostly cloudy.7 mph88%29.95 "Hg9 mi
11:00 PM
Tue, May 26
70 °FLight rain. Overcast.9 mph83%29.96 "Hg9 mi
Weather by CustomWeather, © 2015

See weather overviewHow to use our weather pages